QPF
0.00 0.00 0.00 0.00 0.00 0.00 0.00 0.00 0.00 0.01 0.03 0.04 0.06 0.15 0.32 0.26 0.22 0.18 0.07 0.10 0.12 0.06 0.03 0.02 0.00 0.00 0.01 0.02 0.07 0.21 0.23 0.13 0.01 0.01 0.01 0.00 0.00 0.00 0.00 0.00 0.00 0.00 0.00
0.00 0.00 0.00 0.00 0.00 0.00 0.00 0.00 0.00 0.01 0.01 0.03 0.05 0.12 0.17 0.08 0.09 0.12 0.14 0.11 0.08 0.04 0.03 0.05 0.04 0.02 0.04 0.10 0.18 0.32 0.39 0.21 0.03 0.02 0.04 0.02 0.01 0.00 0.00 0.00 0.00 0.00 0.00
0.00 0.00 0.00 0.00 0.00 0.00 0.00 0.00 0.00 0.01 0.01 0.01 0.03 0.05 0.08 0.10 0.19 0.21 0.22 0.20 0.15 0.08 0.04 0.05 0.05 0.04 0.06 0.12 0.13 0.26 0.43 0.27 0.09 0.03 0.08 0.13 0.13 0.03 0.00 0.00 0.00 0.00 0.00
0.00 0.00 0.00 0.00 0.00 0.00 0.00 0.00 0.00 0.00 0.01 0.01 0.03 0.07 0.10 0.14 0.16 0.20 0.20 0.13 0.12 0.09 0.06 0.07 0.05 0.04 0.05 0.12 0.13 0.19 0.34 0.41 0.29 0.13 0.04 0.04 0.06 0.04 0.04 0.01 0.00 0.00 0.00
0.00 0.00 0.00 0.00 0.00 0.00 0.00 0.00 0.00 0.00 0.00 0.01 0.04 0.07 0.08 0.09 0.11 0.13 0.11 0.13 0.10 0.05 0.04 0.08 0.04 0.03 0.05 0.11 0.18 0.28 0.36 0.44 0.37 0.25 0.15 0.09 0.04 0.02 0.05 0.08 0.02 0.00 0.00
0.00 0.00 0.00 0.00 0.00 0.00 0.00 0.00 0.00 0.00 0.00 0.01 0.01 0.03 0.05 0.07 0.08 0.06 0.05 0.06 0.09 0.11 0.12 0.16 0.10 0.05 0.04 0.08 0.14 0.24 0.32 0.41 0.43 0.31 0.20 0.14 0.06 0.01 0.01 0.04 0.04 0.02 0.00
0.00 0.01 0.00 0.00 0.00 0.00 0.00 0.00 0.00 0.00 0.00 0.00 0.00 0.01 0.02 0.04 0.04 0.05 0.04 0.04 0.05 0.06 0.10 0.18 0.24 0.20 0.12 0.07 0.07 0.13 0.17 0.27 0.42 0.35 0.24 0.16 0.05 0.00 0.00 0.00 0.01 0.01 0.01
0.00 0.01 0.00 0.00 0.00 0.00 0.00 0.00 0.00 0.00 0.00 0.00 0.00 0.01 0.01 0.01 0.01 0.01 0.02 0.03 0.03 0.02 0.01 0.05 0.15 0.25 0.28 0.19 0.11 0.06 0.09 0.17 0.27 0.28 0.34 0.38 0.18 0.03 0.00 0.00 0.01 0.04 0.07
0.00 0.00 0.00 0.00 0.00 0.00 0.00 0.00 0.00 0.00 0.00 0.00 0.00 0.00 0.01 0.00 0.00 0.01 0.02 0.02 0.01 0.01 0.00 0.03 0.05 0.07 0.09 0.10 0.09 0.08 0.06 0.08 0.19 0.25 0.28 0.37 0.32 0.14 0.03 0.01 0.00 0.04 0.13
0.04 0.04 0.01 0.00 0.00 0.00 0.00 0.00 0.00 0.00 0.00 0.00 0.00 0.00 0.00 0.00 0.00 0.00 0.02 0.01 0.01 0.01 0.00 0.00 0.01 0.01 0.01 0.03 0.07 0.10 0.10 0.10 0.14 0.21 0.24 0.27 0.25 0.24 0.12 0.03 0.01 0.01 0.05
0.04 0.04 0.03 0.01 0.00 0.00 0.00 0.00 0.00 0.00 0.00 0.00 0.00 0.00 0.00 0.00 0.00 0.00 0.01 0.01 0.01 0.01 0.00 0.00 0.00 0.01 0.02 0.03 0.06 0.08 0.08 0.10 0.12 0.14 0.17 0.21 0.27 0.38 0.31 0.18 0.10 0.04 0.05
0.02 0.01 0.01 0.01 0.00 0.00 0.00 0.00 0.00 0.00 0.00 0.00 0.00 0.00 0.00 0.00 0.00 0.00 0.00 0.01 0.00 0.00 0.00 0.01 0.01 0.01 0.03 0.04 0.07 0.08 0.09 0.12 0.14 0.13 0.13 0.18 0.31 0.45 0.48 0.45 0.37 0.24 0.17
0.02 0.01 0.00 0.00 0.00 0.00 0.00 0.00 0.00 0.00 0.00 0.00 0.00 0.00 0.00 0.00 0.00 0.00 0.00 0.01 0.01 0.00 0.00 0.00 0.01 0.01 0.02 0.03 0.05 0.09 0.10 0.12 0.17 0.21 0.20 0.18 0.25 0.38 0.46 0.46 0.41 0.33 0.27
0.00 0.00 0.00 0.00 0.00 0.00 0.00 0.00 0.00 0.00 0.01 0.01 0.01 0.01 0.00 0.00 0.00 0.00 0.00 0.00 0.01 0.00 0.00 0.01 0.04 0.03 0.02 0.03 0.05 0.04 0.03 0.04 0.09 0.14 0.18 0.20 0.19 0.23 0.26 0.30 0.31 0.36 0.37
0.00 0.00 0.00 0.00 0.00 0.00 0.00 0.00 0.00 0.00 0.01 0.03 0.03 0.01 0.00 0.00 0.00 0.00 0.00 0.00 0.00 0.00 0.00 0.00 0.03 0.06 0.07 0.07 0.10 0.06 0.02 0.02 0.03 0.05 0.06 0.10 0.12 0.12 0.14 0.17 0.27 0.39 0.42
0.00 0.00 0.00 0.00 0.00 0.00 0.00 0.00 0.00 0.00 0.01 0.04 0.04 0.01 0.01 0.01 0.00 0.00 0.00 0.00 0.00 0.00 0.01 0.00 0.00 0.02 0.02 0.05 0.07 0.03 0.01 0.01 0.02 0.04 0.04 0.05 0.05 0.06 0.05 0.04 0.07 0.19 0.27
0.00 0.00 0.01 0.01 0.00 0.00 0.00 0.00 0.00 0.01 0.01 0.03 0.04 0.02 0.03 0.03 0.02 0.02 0.02 0.01 0.01 0.00 0.00 0.01 0.02 0.02 0.03 0.03 0.02 0.00 0.01 0.01 0.01 0.01 0.02 0.02 0.01 0.02 0.02 0.02 0.02 0.02 0.04
0.01 0.01 0.02 0.02 0.01 0.00 0.00 0.00 0.02 0.02 0.02 0.04 0.07 0.07 0.07 0.06 0.08 0.09 0.08 0.08 0.06 0.05 0.03 0.06 0.09 0.13 0.09 0.04 0.04 0.01 0.01 0.01 0.00 0.00 0.00 0.01 0.01 0.01 0.01 0.02 0.03 0.04 0.08
0.02 0.02 0.02 0.01 0.01 0.01 0.00 0.00 0.01 0.02 0.02 0.02 0.03 0.05 0.06 0.08 0.11 0.11 0.13 0.19 0.20 0.18 0.19 0.25 0.24 0.21 0.12 0.06 0.07 0.04 0.01 0.01 0.01 0.00 0.01 0.01 0.01 0.01 0.01 0.02 0.03 0.07 0.14
0.00 0.01 0.01 0.00 0.00 0.00 0.00 0.00 0.00 0.00 0.00 0.00 0.00 0.00 0.01 0.02 0.05 0.07 0.09 0.14 0.18 0.22 0.28 0.27 0.19 0.15 0.19 0.18 0.13 0.10 0.03 0.03 0.03 0.02 0.02 0.02 0.02 0.02 0.01 0.01 0.03 0.05 0.07
0.00 0.00 0.00 0.00 0.00 0.00 0.00 0.00 0.00 0.00 0.00 0.00 0.00 0.00 0.00 0.00 0.00 0.01 0.02 0.04 0.08 0.11 0.12 0.12 0.11 0.14 0.27 0.28 0.17 0.11 0.05 0.05 0.06 0.05 0.05 0.05 0.05 0.02 0.02 0.01 0.02 0.03 0.03
0.00 0.00 0.00 0.00 0.00 0.00 0.00 0.00 0.00 0.00 0.00 0.00 0.00 0.00 0.00 0.00 0.00 0.00 0.00 0.01 0.02 0.03 0.04 0.06 0.08 0.12 0.18 0.20 0.15 0.06 0.05 0.08 0.14 0.16 0.15 0.12 0.11 0.04 0.01 0.00 0.00 0.00 0.00
0.00 0.00 0.00 0.00 0.00 0.00 0.00 0.00 0.00 0.00 0.00 0.00 0.00 0.00 0.00 0.00 0.00 0.01 0.01 0.01 0.02 0.03 0.04 0.06 0.09 0.12 0.16 0.16 0.12 0.06 0.05 0.09 0.17 0.20 0.20 0.17 0.10 0.03 0.01 0.00 0.00 0.00 0.00
0.00 0.00 0.00 0.00 0.00 0.00 0.00 0.00 0.00 0.00 0.00 0.00 0.00 0.00 0.00 0.00 0.00 0.01 0.01 0.01 0.02 0.03 0.06 0.10 0.13 0.15 0.17 0.18 0.17 0.16 0.12 0.12 0.13 0.14 0.13 0.09 0.04 0.02 0.01 0.01 0.00 0.01 0.02
0.00 0.00 0.00 0.00 0.00 0.00 0.00 0.00 0.00 0.00 0.00 0.00 0.00 0.00 0.00 0.00 0.00 0.01 0.01 0.01 0.01 0.03 0.08 0.10 0.12 0.12 0.13 0.12 0.13 0.20 0.24 0.29 0.33 0.26 0.12 0.08 0.06 0.04 0.02 0.01 0.01 0.02 0.02
0.00 0.00 0.00 0.00 0.00 0.00 0.00 0.00 0.00 0.00 0.00 0.00 0.00 0.00 0.01 0.01 0.00 0.00 0.00 0.00 0.00 0.01 0.02 0.04 0.05 0.09 0.10 0.06 0.03 0.08 0.18 0.29 0.37 0.39 0.32 0.29 0.27 0.23 0.14 0.04 0.01 0.01 0.01
MSLP
1003.53 1003.94 1004.41 1004.87 1005.29 1005.66 1005.99 1006.33 1006.70 1007.15 1007.68 1008.27 1008.89 1009.49 1010.03 1010.45 1010.74 1010.91 1010.97 1010.97 1010.97 1011.02 1011.15 1011.39 1011.73 1012.17 1012.67 1013.19 1013.72 1014.22 1014.69 1015.11 1015.49 1015.82 1016.09 1016.31 1016.45 1016.50 1016.48 1016.39 1016.27 1016.14 1016.05
1003.37 1003.86 1004.44 1005.01 1005.51 1005.93 1006.28 1006.61 1006.95 1007.36 1007.86 1008.42 1009.03 1009.63 1010.17 1010.60 1010.88 1011.03 1011.06 1011.03 1011.00 1011.01 1011.11 1011.33 1011.68 1012.12 1012.63 1013.18 1013.73 1014.25 1014.75 1015.20 1015.60 1015.96 1016.26 1016.49 1016.65 1016.72 1016.70 1016.62 1016.49 1016.36 1016.27
1003.25 1003.83 1004.51 1005.18 1005.77 1006.25 1006.63 1006.95 1007.28 1007.65 1008.09 1008.62 1009.19 1009.76 1010.27 1010.67 1010.94 1011.07 1011.08 1011.04 1010.98 1010.98 1011.07 1011.28 1011.62 1012.05 1012.56 1013.10 1013.65 1014.18 1014.67 1015.13 1015.55 1015.92 1016.25 1016.51 1016.70 1016.81 1016.83 1016.78 1016.68 1016.57 1016.49
1003.20 1003.84 1004.61 1005.37 1006.04 1006.58 1006.99 1007.31 1007.61 1007.93 1008.32 1008.78 1009.29 1009.81 1010.28 1010.64 1010.88 1011.00 1011.00 1010.95 1010.90 1010.90 1010.99 1011.21 1011.54 1011.96 1012.45 1012.97 1013.49 1013.98 1014.45 1014.89 1015.30 1015.68 1016.03 1016.33 1016.57 1016.73 1016.81 1016.82 1016.76 1016.69 1016.63
1003.24 1003.94 1004.77 1005.59 1006.32 1006.89 1007.32 1007.63 1007.89 1008.17 1008.49 1008.88 1009.32 1009.76 1010.18 1010.50 1010.72 1010.82 1010.83 1010.79 1010.76 1010.78 1010.89 1011.11 1011.43 1011.84 1012.30 1012.77 1013.24 1013.68 1014.10 1014.49 1014.87 1015.24 1015.60 1015.93 1016.22 1016.45 1016.60 1016.67 1016.68 1016.66 1016.64
1003.42 1004.14 1004.99 1005.83 1006.57 1007.15 1007.57 1007.87 1008.09 1008.31 1008.57 1008.88 1009.24 1009.63 1009.98 1010.27 1010.46 1010.56 1010.59 1010.58 1010.58 1010.63 1010.76 1011.00 1011.32 1011.70 1012.12 1012.54 1012.94 1013.31 1013.66 1013.99 1014.32 1014.66 1015.01 1015.36 1015.68 1015.97 1016.18 1016.33 1016.41 1016.45 1016.48
1003.73 1004.43 1005.25 1006.07 1006.78 1007.34 1007.73 1007.98 1008.16 1008.33 1008.53 1008.78 1009.08 1009.41 1009.72 1009.98 1010.17 1010.27 1010.32 1010.35 1010.38 1010.47 1010.63 1010.88 1011.20 1011.56 1011.94 1012.30 1012.63 1012.92 1013.19 1013.44 1013.71 1014.00 1014.33 1014.67 1015.02 1015.34 1015.62 1015.83 1015.98 1016.08 1016.16
1004.15 1004.78 1005.53 1006.27 1006.91 1007.40 1007.74 1007.95 1008.09 1008.21 1008.37 1008.58 1008.84 1009.13 1009.42 1009.67 1009.86 1009.99 1010.06 1010.12 1010.20 1010.32 1010.52 1010.78 1011.09 1011.44 1011.78 1012.09 1012.36 1012.57 1012.76 1012.94 1013.14 1013.37 1013.65 1013.97 1014.32 1014.66 1014.98 1015.25 1015.46 1015.62 1015.74
1004.61 1005.13 1005.75 1006.38 1006.91 1007.31 1007.58 1007.74 1007.85 1007.95 1008.09 1008.28 1008.53 1008.82 1009.11 1009.36 1009.57 1009.72 1009.83 1009.92 1010.03 1010.19 1010.40 1010.67 1010.99 1011.33 1011.64 1011.92 1012.14 1012.31 1012.43 1012.55 1012.68 1012.85 1013.08 1013.36 1013.69 1014.04 1014.38 1014.68 1014.94 1015.14 1015.31
1005.03 1005.40 1005.87 1006.34 1006.74 1007.04 1007.24 1007.36 1007.44 1007.54 1007.69 1007.90 1008.17 1008.47 1008.78 1009.06 1009.29 1009.47 1009.61 1009.73 1009.87 1010.04 1010.27 1010.55 1010.88 1011.21 1011.52 1011.79 1011.99 1012.14 1012.23 1012.30 1012.38 1012.50 1012.68 1012.92 1013.22 1013.56 1013.90 1014.22 1014.51 1014.75 1014.96
1005.33 1005.53 1005.82 1006.13 1006.40 1006.60 1006.73 1006.82 1006.90 1007.02 1007.20 1007.45 1007.76 1008.11 1008.45 1008.77 1009.03 1009.23 1009.39 1009.53 1009.67 1009.86 1010.09 1010.38 1010.72 1011.06 1011.39 1011.67 1011.90 1012.05 1012.14 1012.20 1012.25 1012.34 1012.48 1012.68 1012.95 1013.26 1013.59 1013.92 1014.23 1014.50 1014.73
1005.49 1005.51 1005.63 1005.78 1005.93 1006.04 1006.12 1006.20 1006.29 1006.45 1006.68 1006.98 1007.34 1007.74 1008.12 1008.47 1008.75 1008.97 1009.14 1009.28 1009.42 1009.60 1009.84 1010.14 1010.48 1010.85 1011.21 1011.53 1011.79 1011.98 1012.10 1012.18 1012.24 1012.31 1012.42 1012.59 1012.82 1013.10 1013.42 1013.75 1014.06 1014.35 1014.61
1005.53 1005.39 1005.36 1005.38 1005.43 1005.47 1005.53 1005.60 1005.73 1005.92 1006.20 1006.55 1006.96 1007.39 1007.81 1008.17 1008.47 1008.69 1008.85 1008.98 1009.11 1009.28 1009.50 1009.80 1010.16 1010.55 1010.95 1011.32 1011.64 1011.88 1012.06 1012.17 1012.25 1012.32 1012.42 1012.56 1012.76 1013.02 1013.31 1013.63 1013.95 1014.25 1014.51
1005.52 1005.26 1005.11 1005.04 1005.02 1005.03 1005.08 1005.16 1005.31 1005.54 1005.86 1006.24 1006.67 1007.12 1007.54 1007.90 1008.19 1008.40 1008.54 1008.65 1008.75 1008.90 1009.10 1009.39 1009.75 1010.16 1010.60 1011.02 1011.39 1011.69 1011.92 1012.08 1012.19 1012.27 1012.36 1012.49 1012.66 1012.89 1013.16 1013.46 1013.78 1014.08 1014.35
1005.58 1005.23 1005.02 1004.91 1004.86 1004.85 1004.90 1005.00 1005.17 1005.41 1005.73 1006.12 1006.54 1006.97 1007.37 1007.71 1007.96 1008.14 1008.25 1008.32 1008.39 1008.50 1008.68 1008.95 1009.30 1009.72 1010.17 1010.62 1011.03 1011.38 1011.66 1011.85 1011.98 1012.08 1012.17 1012.28 1012.42 1012.62 1012.87 1013.15 1013.46 1013.76 1014.04
1005.80 1005.43 1005.20 1005.07 1005.02 1005.03 1005.08 1005.18 1005.35 1005.58 1005.87 1006.22 1006.60 1006.98 1007.33 1007.61 1007.82 1007.95 1008.02 1008.06 1008.09 1008.17 1008.31 1008.55 1008.87 1009.26 1009.71 1010.16 1010.59 1010.96 1011.25 1011.47 1011.61 1011.71 1011.80 1011.89 1012.01 1012.18 1012.40 1012.67 1012.96 1013.25 1013.53
1006.24 1005.89 1005.68 1005.58 1005.55 1005.57 1005.63 1005.73 1005.87 1006.06 1006.29 1006.57 1006.87 1007.17 1007.44 1007.66 1007.81 1007.89 1007.92 1007.91 1007.91 1007.95 1008.05 1008.24 1008.52 1008.87 1009.28 1009.70 1010.10 1010.46 1010.75 1010.96 1011.11 1011.20 1011.28 1011.35 1011.45 1011.60 1011.79 1012.03 1012.30 1012.59 1012.86
1006.91 1006.61 1006.45 1006.39 1006.40 1006.43 1006.49 1006.56 1006.66 1006.78 1006.93 1007.12 1007.32 1007.52 1007.70 1007.85 1007.94 1007.97 1007.97 1007.93 1007.90 1007.91 1007.97 1008.11 1008.32 1008.61 1008.95 1009.30 1009.65 1009.96 1010.22 1010.41 1010.54 1010.62 1010.68 1010.74 1010.83 1010.95 1011.13 1011.35 1011.60 1011.87 1012.14
1007.73 1007.50 1007.40 1007.39 1007.42 1007.47 1007.52 1007.55 1007.59 1007.63 1007.69 1007.77 1007.87 1007.97 1008.07 1008.15 1008.19 1008.20 1008.17 1008.12 1008.07 1008.05 1008.07 1008.16 1008.31 1008.51 1008.76 1009.04 1009.30 1009.55 1009.75 1009.90 1010.00 1010.07 1010.12 1010.18 1010.26 1010.38 1010.54 1010.75 1010.99 1011.24 1011.50
1008.58 1008.42 1008.38 1008.41 1008.46 1008.51 1008.53 1008.53 1008.50 1008.47 1008.44 1008.43 1008.43 1008.45 1008.49 1008.51 1008.53 1008.52 1008.49 1008.45 1008.40 1008.37 1008.36 1008.39 1008.47 1008.60 1008.75 1008.92 1009.10 1009.26 1009.39 1009.50 1009.58 1009.64 1009.70 1009.76 1009.86 1009.98 1010.15 1010.35 1010.58 1010.83 1011.08
1009.33 1009.23 1009.23 1009.29 1009.35 1009.39 1009.39 1009.34 1009.26 1009.17 1009.07 1008.99 1008.93 1008.90 1008.89 1008.89 1008.90 1008.90 1008.89 1008.86 1008.83 1008.80 1008.78 1008.77 1008.79 1008.83 1008.89 1008.96 1009.04 1009.12 1009.20 1009.26 1009.32 1009.38 1009.46 1009.55 1009.67 1009.82 1010.01 1010.22 1010.45 1010.69 1010.92
1009.88 1009.82 1009.85 1009.91 1009.96 1009.99 1009.97 1009.90 1009.78 1009.65 1009.51 1009.39 1009.30 1009.25 1009.23 1009.23 1009.25 1009.28 1009.30 1009.31 1009.31 1009.28 1009.25 1009.22 1009.18 1009.16 1009.13 1009.12 1009.12 1009.13 1009.15 1009.18 1009.23 1009.30 1009.40 1009.53 1009.70 1009.89 1010.10 1010.33 1010.57 1010.80 1011.02
1010.19 1010.15 1010.17 1010.22 1010.27 1010.28 1010.24 1010.16 1010.04 1009.90 1009.76 1009.63 1009.54 1009.49 1009.49 1009.51 1009.56 1009.63 1009.69 1009.73 1009.76 1009.76 1009.73 1009.68 1009.60 1009.52 1009.44 1009.35 1009.28 1009.23 1009.20 1009.21 1009.26 1009.35 1009.49 1009.66 1009.87 1010.11 1010.36 1010.61 1010.86 1011.09 1011.29
1010.27 1010.22 1010.23 1010.26 1010.28 1010.28 1010.24 1010.17 1010.06 1009.94 1009.83 1009.73 1009.67 1009.65 1009.67 1009.73 1009.82 1009.92 1010.01 1010.09 1010.15 1010.17 1010.15 1010.09 1009.99 1009.87 1009.74 1009.60 1009.48 1009.38 1009.32 1009.31 1009.36 1009.47 1009.64 1009.85 1010.11 1010.38 1010.66 1010.94 1011.19 1011.41 1011.60
1010.19 1010.11 1010.08 1010.08 1010.09 1010.08 1010.05 1010.01 1009.94 1009.87 1009.80 1009.75 1009.74 1009.76 1009.81 1009.90 1010.01 1010.14 1010.26 1010.37 1010.45 1010.48 1010.48 1010.42 1010.31 1010.17 1010.01 1009.84 1009.68 1009.55 1009.47 1009.45 1009.50 1009.61 1009.80 1010.04 1010.32 1010.62 1010.92 1011.20 1011.45 1011.66 1011.83
1010.01 1009.89 1009.82 1009.79 1009.78 1009.78 1009.77 1009.77 1009.75 1009.74 1009.74 1009.75 1009.78 1009.84 1009.93 1010.04 1010.17 1010.31 1010.44 1010.56 1010.65 1010.70 1010.71 1010.66 1010.56 1010.42 1010.24 1010.06 1009.88 1009.73 1009.64 1009.60 1009.64 1009.75 1009.93 1010.17 1010.46 1010.76 1011.06 1011.33 1011.57 1011.76 1011.90
Thickness
5821 5822 5820 5818 5815 5811 5806 5801 5793 5787 5780 5773 5767 5762 5759 5758 5756 5755 5752 5749 5747 5746 5744 5739 5735 5731 5727 5723 5721 5718 5715 5713 5712 5706 5702 5704 5709 5709 5709 5711 5711 5712 5712
5813 5811 5810 5808 5805 5802 5799 5795 5787 5781 5775 5769 5764 5760 5756 5754 5751 5749 5746 5743 5741 5740 5739 5734 5729 5727 5724 5720 5717 5713 5708 5707 5709 5702 5694 5690 5693 5700 5706 5707 5707 5707 5710
5806 5802 5801 5798 5797 5792 5788 5784 5778 5772 5768 5764 5759 5755 5750 5747 5744 5740 5738 5736 5735 5735 5733 5729 5725 5722 5720 5716 5713 5709 5704 5699 5702 5705 5696 5688 5685 5690 5698 5703 5704 5705 5705
5804 5797 5794 5790 5787 5784 5783 5778 5771 5765 5761 5758 5753 5747 5741 5736 5736 5735 5732 5730 5728 5727 5726 5723 5719 5716 5714 5712 5711 5708 5704 5698 5693 5696 5702 5703 5699 5692 5689 5696 5702 5703 5703
5798 5791 5788 5784 5782 5778 5776 5773 5767 5761 5758 5755 5750 5745 5740 5736 5733 5731 5727 5724 5723 5721 5718 5715 5712 5709 5707 5706 5706 5704 5702 5698 5693 5689 5693 5699 5704 5704 5693 5689 5695 5700 5703
5790 5783 5781 5776 5772 5770 5769 5767 5761 5756 5753 5749 5746 5740 5735 5731 5726 5722 5720 5717 5715 5713 5712 5709 5706 5704 5702 5701 5701 5700 5699 5697 5694 5691 5690 5694 5698 5699 5699 5694 5694 5695 5700
5778 5771 5767 5763 5760 5760 5761 5761 5756 5749 5746 5742 5739 5736 5732 5728 5723 5720 5715 5711 5707 5704 5703 5702 5700 5699 5699 5698 5697 5697 5696 5695 5693 5692 5692 5694 5701 5705 5705 5701 5697 5697 5700
5765 5761 5759 5756 5754 5755 5756 5754 5749 5743 5740 5737 5736 5735 5732 5725 5722 5720 5714 5708 5704 5702 5700 5697 5695 5694 5695 5695 5695 5694 5694 5694 5695 5695 5695 5692 5696 5705 5707 5705 5700 5695 5694
5760 5758 5757 5755 5752 5751 5750 5748 5744 5739 5736 5735 5735 5732 5728 5723 5719 5716 5712 5706 5702 5698 5695 5692 5690 5690 5691 5692 5691 5690 5690 5691 5693 5694 5695 5695 5694 5697 5704 5707 5706 5697 5687
5752 5753 5754 5755 5753 5751 5747 5745 5741 5738 5734 5734 5732 5727 5724 5720 5714 5710 5706 5702 5699 5696 5691 5689 5689 5687 5686 5686 5686 5685 5685 5686 5688 5689 5689 5691 5694 5691 5695 5701 5704 5703 5696
5744 5746 5749 5755 5754 5750 5745 5740 5738 5736 5733 5731 5728 5721 5717 5714 5710 5705 5702 5698 5695 5693 5690 5687 5686 5686 5683 5682 5681 5680 5681 5681 5681 5681 5681 5683 5687 5686 5687 5692 5697 5699 5698
5741 5745 5749 5751 5750 5748 5744 5740 5737 5734 5731 5728 5724 5718 5713 5709 5706 5703 5699 5695 5692 5691 5689 5687 5685 5684 5681 5680 5678 5676 5677 5677 5676 5675 5674 5674 5678 5677 5677 5682 5687 5691 5693
5736 5741 5745 5746 5746 5746 5744 5742 5738 5734 5730 5724 5719 5713 5709 5705 5702 5701 5698 5693 5690 5688 5687 5686 5684 5682 5679 5677 5675 5674 5673 5673 5672 5670 5668 5667 5668 5668 5668 5673 5678 5682 5685
5732 5736 5738 5741 5741 5742 5741 5738 5736 5733 5728 5720 5712 5707 5705 5703 5701 5699 5696 5692 5689 5687 5685 5683 5681 5680 5677 5674 5672 5670 5668 5667 5666 5665 5663 5662 5661 5662 5663 5667 5671 5675 5676
5725 5730 5733 5735 5736 5736 5736 5735 5733 5731 5726 5716 5707 5703 5702 5701 5698 5696 5693 5690 5688 5686 5683 5680 5677 5675 5673 5672 5669 5666 5664 5662 5660 5660 5659 5659 5659 5660 5662 5665 5668 5670 5669
5719 5723 5727 5728 5730 5731 5731 5730 5726 5724 5720 5712 5706 5704 5700 5697 5695 5693 5690 5687 5684 5683 5680 5677 5673 5670 5670 5670 5667 5663 5661 5659 5657 5657 5658 5658 5659 5659 5661 5664 5667 5667 5665
5708 5711 5714 5717 5721 5723 5723 5719 5718 5718 5714 5708 5704 5701 5696 5691 5689 5688 5685 5682 5680 5677 5674 5671 5669 5666 5665 5664 5662 5659 5657 5657 5658 5659 5658 5659 5660 5660 5660 5661 5663 5664 5665
5695 5699 5702 5705 5709 5711 5711 5710 5708 5706 5702 5698 5695 5693 5690 5686 5683 5680 5678 5676 5674 5671 5668 5665 5663 5661 5659 5657 5655 5654 5652 5653 5656 5659 5660 5660 5661 5661 5660 5660 5660 5661 5665
5685 5688 5692 5694 5697 5699 5701 5699 5694 5690 5687 5684 5682 5681 5679 5676 5673 5670 5669 5667 5665 5663 5661 5660 5657 5654 5653 5651 5649 5647 5646 5647 5650 5655 5658 5660 5661 5662 5660 5658 5657 5658 5661
5679 5682 5684 5687 5687 5688 5688 5684 5680 5677 5674 5674 5672 5671 5668 5664 5661 5659 5658 5658 5657 5656 5655 5654 5652 5649 5647 5646 5643 5641 5640 5640 5644 5648 5653 5655 5656 5657 5655 5653 5654 5653 5655
5675 5677 5677 5677 5678 5678 5676 5671 5669 5668 5668 5667 5665 5661 5658 5655 5652 5650 5650 5649 5649 5649 5648 5647 5645 5643 5641 5639 5638 5636 5634 5635 5636 5640 5644 5647 5648 5648 5648 5648 5648 5648 5649
5670 5672 5670 5670 5672 5672 5669 5664 5662 5664 5664 5661 5658 5655 5651 5648 5646 5644 5643 5643 5642 5640 5639 5637 5634 5632 5631 5630 5628 5628 5627 5628 5628 5632 5637 5639 5639 5640 5641 5641 5641 5642 5641
5668 5668 5667 5667 5667 5667 5665 5661 5660 5662 5660 5656 5652 5649 5646 5641 5639 5637 5636 5635 5634 5631 5628 5625 5621 5618 5617 5616 5616 5617 5619 5620 5622 5627 5632 5631 5631 5632 5633 5634 5635 5634 5634
5667 5666 5666 5664 5662 5664 5663 5661 5661 5661 5658 5652 5648 5645 5640 5636 5633 5630 5628 5626 5622 5619 5616 5612 5608 5605 5603 5601 5603 5606 5609 5613 5616 5619 5621 5623 5623 5625 5627 5626 5626 5627 5628
5668 5666 5664 5661 5662 5663 5661 5659 5658 5657 5655 5650 5646 5641 5635 5631 5628 5623 5618 5617 5611 5608 5605 5600 5596 5592 5588 5586 5588 5594 5600 5606 5609 5612 5614 5616 5616 5619 5620 5621 5621 5621 5622
5670 5665 5662 5660 5661 5662 5659 5657 5654 5652 5649 5645 5640 5636 5632 5628 5625 5621 5615 5609 5606 5601 5598 5594 5589 5585 5581 5579 5582 5589 5596 5601 5605 5607 5609 5612 5614 5615 5615 5614 5614 5616 5616